Dewpoint
59 65 65 65 65 66 66 66 65 63 60 59 58 59 59 60 60 62 62 60 60 58 55 56 57 58 55 59 58 54 54 54 54 54 54 52 53 52 50 52 50 50 50
55 58 65 64 65 65 66 66 65 63 61 60 58 57 58 58 60 61 61 60 58 58 54 57 57 57 54 56 57 55 55 55 55 54 53 52 51 53 53 52 52 51 51
53 55 63 65 65 66 65 66 65 64 61 61 58 57 57 58 59 60 60 59 58 57 55 57 58 55 56 57 57 54 56 53 55 55 54 54 54 52 53 52 52 50 51
51 53 58 65 66 65 65 65 64 63 62 61 58 56 56 57 58 59 59 58 57 56 56 56 56 59 57 57 54 53 55 54 54 52 54 54 54 54 53 52 52 51 51
50 52 56 61 65 65 65 65 64 63 62 61 58 56 56 56 57 58 58 57 56 56 57 57 57 57 58 58 53 54 53 56 54 53 54 52 54 53 53 52 51 51 51
47 51 52 55 64 64 64 64 63 63 62 61 59 56 55 55 55 56 56 56 56 56 56 57 57 57 57 56 55 54 55 55 53 54 53 53 54 53 52 51 51 51 51
46 48 50 52 55 61 63 63 63 62 61 62 59 57 56 54 54 54 54 53 55 55 56 55 55 55 56 55 54 56 53 55 53 53 54 54 53 52 51 51 51 51 51
45 46 47 50 52 55 63 63 62 61 61 61 58 56 53 54 54 53 53 53 53 54 55 55 53 52 54 55 55 53 54 56 56 55 55 53 52 51 52 53 51 51 51
41 43 44 47 50 52 57 63 62 61 59 61 61 58 54 53 53 54 53 53 52 52 53 54 53 52 52 54 54 53 52 55 57 57 55 56 55 55 53 53 53 51 52
39 41 42 44 47 51 52 57 63 61 61 59 60 60 59 56 54 53 54 53 53 52 52 53 53 52 52 52 53 53 52 52 55 58 57 56 53 54 52 52 53 53 51
37 39 41 43 45 48 50 51 57 61 61 60 59 58 58 58 57 55 53 53 52 53 53 53 53 53 52 52 52 53 52 52 52 54 55 56 53 55 53 54 52 52 52
35 37 39 41 43 46 49 50 53 59 61 60 60 59 57 56 56 55 54 54 53 53 53 53 53 53 53 53 53 53 52 52 51 52 53 55 54 56 54 53 53 53 52
34 36 38 40 42 45 48 49 51 54 61 60 60 59 59 58 57 57 55 55 54 56 52 53 53 53 53 53 53 53 53 52 51 51 52 54 56 54 53 54 53 53 53
35 37 39 41 42 44 47 49 51 53 55 61 60 60 59 59 58 57 56 55 54 55 56 55 54 54 53 53 53 53 52 52 51 51 52 53 54 55 55 55 55 55 52
37 39 40 41 44 44 43 45 47 49 52 56 61 60 60 60 59 59 58 57 55 53 54 55 55 55 54 53 53 53 53 52 51 51 51 51 53 54 55 55 55 55 55
38 39 40 42 41 40 40 42 43 46 47 51 61 61 60 61 60 59 59 59 58 55 53 56 57 57 56 54 54 53 53 52 51 51 50 50 51 52 54 54 54 54 55
39 39 40 40 38 38 38 39 40 42 43 47 51 60 60 61 60 60 60 59 59 58 56 57 58 58 58 57 56 53 53 52 52 50 50 49 49 50 52 53 53 54 54
40 40 39 38 36 36 37 37 38 39 41 43 46 50 55 60 60 60 60 59 59 59 58 57 58 58 58 58 57 56 53 52 52 51 50 49 48 48 50 51 51 52 52
39 40 36 36 35 35 35 36 38 39 41 42 44 47 50 54 59 60 60 59 59 59 59 57 56 58 59 60 59 58 56 56 54 52 50 49 48 48 48 49 50 50 51
39 38 34 34 34 33 34 35 36 40 42 44 46 48 50 47 47 58 59 59 59 59 58 58 57 57 58 59 59 58 57 57 55 54 52 50 49 48 47 47 48 49 49
38 35 32 32 32 32 33 35 36 39 41 43 44 44 45 42 41 42 50 58 59 58 57 57 56 56 56 57 57 58 58 59 58 56 53 51 49 48 48 47 48 48 48
37 35 32 31 31 30 33 34 35 38 41 39 38 39 41 40 39 39 41 44 47 57 57 56 56 55 56 57 57 57 57 56 55 59 57 56 52 51 50 49 48 47 46
36 32 29 29 29 29 32 33 34 37 38 37 36 37 38 37 37 37 40 44 48 51 52 55 56 56 55 56 56 56 57 56 56 57 58 55 54 54 53 51 49 47 46
34 30 28 28 27 28 31 32 33 35 35 35 35 34 35 35 35 36 41 44 46 50 47 49 53 57 57 57 57 56 56 56 57 57 58 55 56 55 55 55 52 49 48
30 28 28 27 27 27 30 31 32 34 32 33 33 33 33 33 33 34 37 38 39 41 42 44 46 50 53 54 54 54 56 55 54 55 57 57 55 55 56 57 56 53 50
28 27 25 26 26 26 29 30 31 31 30 30 31 31 31 31 31 32 32 33 34 36 40 42 46 49 51 53 52 51 54 53 54 53 56 55 55 55 53 54 56 56 53
Wind_Speed
14 8 8 10 11 9 10 7 9 14 15 13 11 13 14 13 14 12 13 16 16 16 16 17 15 18 16 12 14 16 12 13 15 14 12 13 12 12 12 12 11 11 10
15 13 12 14 11 11 8 7 8 13 14 13 13 13 13 13 15 15 14 14 16 15 15 17 17 17 16 13 14 14 14 13 14 13 13 12 11 12 12 11 11 10 9
18 15 10 13 12 9 10 9 8 6 12 11 14 14 13 14 15 15 15 14 15 15 15 16 14 16 18 15 15 14 14 12 13 11 12 12 12 11 11 11 10 9 8
20 17 12 10 12 15 14 13 12 11 11 14 12 12 12 12 14 14 13 14 14 13 14 17 16 16 17 17 15 15 15 14 13 12 11 11 11 11 11 10 10 9 8
21 18 13 9 11 11 16 14 13 16 12 14 14 12 13 13 15 13 14 15 15 14 11 16 16 16 17 17 16 15 15 16 14 13 13 12 12 11 11 11 10 10 9
22 19 16 16 6 10 15 11 8 16 13 12 13 13 11 11 12 14 15 14 15 15 13 15 14 13 16 17 16 17 15 15 15 15 14 13 13 12 12 12 11 11 10
21 20 17 16 15 11 10 12 6 16 13 11 13 9 6 7 8 11 12 12 15 15 14 15 14 12 13 17 16 16 17 17 16 16 15 15 14 14 13 13 13 12 11
19 20 19 17 16 15 8 14 12 10 8 15 7 13 8 4 5 8 9 11 15 13 14 15 16 15 14 13 14 18 17 16 18 17 16 15 15 15 14 14 14 13 13
19 19 19 18 17 16 10 11 14 13 13 13 11 4 8 7 13 8 12 11 13 14 13 13 15 17 17 17 17 18 20 18 18 19 18 18 17 17 16 15 15 15 15
19 19 22 20 19 14 16 10 11 13 13 14 8 12 2 5 7 6 5 12 11 15 15 15 14 15 17 17 18 19 21 22 20 20 20 20 18 18 18 18 17 16 16
19 19 19 18 18 16 16 15 9 13 14 15 15 9 9 5 5 5 6 10 12 14 15 16 16 15 16 17 17 18 24 25 23 20 20 20 19 20 19 20 19 18 18
18 18 19 18 18 17 16 16 14 5 14 11 14 16 15 12 12 8 4 9 15 11 15 14 16 17 16 17 19 22 26 28 28 25 23 20 21 20 21 21 20 20 19
19 19 19 18 17 16 15 15 14 11 8 13 17 17 13 14 6 10 10 6 7 5 9 13 16 16 16 17 18 24 26 30 30 30 27 25 24 24 23 22 22 21 20
14 17 18 17 17 16 15 14 11 11 11 11 14 12 10 10 10 9 12 10 9 12 8 7 14 17 18 18 20 26 22 30 32 32 30 29 28 27 25 24 24 22 22
13 14 15 17 16 16 17 15 12 12 12 10 14 12 12 10 11 11 12 13 16 8 17 11 13 17 18 17 21 21 23 23 33 33 32 31 30 30 29 28 26 24 24
13 14 16 13 14 13 16 16 12 12 13 12 6 14 14 11 13 13 14 15 13 16 12 14 15 8 16 17 18 22 23 26 30 34 34 33 32 31 31 30 28 28 26
14 14 14 11 14 15 16 15 15 13 14 12 12 6 13 12 13 14 14 14 15 15 17 13 12 11 12 16 15 19 18 19 20 30 33 33 33 32 32 32 31 31 29
12 12 12 12 14 15 16 17 16 13 13 12 12 10 10 12 15 15 15 17 16 14 14 18 11 11 16 15 15 16 18 17 20 20 30 32 33 33 33 34 34 33 32
13 11 13 13 14 16 16 16 14 13 12 11 10 10 11 13 14 13 15 15 16 14 15 14 14 11 14 8 9 11 14 15 15 19 24 30 31 30 32 34 35 34 34
13 12 13 14 14 16 16 16 14 12 12 10 9 7 9 11 13 9 15 15 13 14 13 13 14 15 10 6 6 14 11 8 13 11 15 18 23 28 30 30 31 31 33
13 13 13 14 15 16 19 20 15 13 13 11 13 15 11 16 16 15 6 8 12 13 12 13 12 7 7 5 12 6 7 8 11 11 12 13 13 14 17 26 25 32 34
13 15 14 14 15 15 25 25 20 14 14 15 16 15 13 20 21 19 16 12 8 11 13 11 10 11 11 8 8 9 12 11 9 10 12 12 13 16 14 17 23 30 32
8 13 13 12 14 16 26 26 22 14 15 17 19 17 15 16 21 19 16 12 11 12 9 8 12 13 12 13 12 12 12 11 14 6 15 17 11 19 15 18 26 30 32
11 12 12 13 13 16 25 27 19 14 15 16 17 18 17 19 24 22 13 12 12 11 16 13 13 13 13 9 13 13 14 16 15 10 11 16 11 17 14 14 20 28 31
10 11 11 13 14 14 23 26 18 12 13 15 14 19 20 22 26 27 16 15 13 13 15 18 16 11 12 10 9 6 13 14 13 10 12 8 7 12 13 16 16 24 29
10 9 11 12 14 14 21 24 20 13 14 13 14 16 24 23 25 25 20 18 18 17 19 20 17 15 14 8 5 4 9 13 10 4 10 12 13 10 7 12 18 15 18
Wind_Direction
338 199 208 197 206 196 195 189 174 163 152 161 164 156 150 152 147 148 159 162 159 158 160 158 166 146 142 152 148 139 147 158 145 148 145 142 136 139 136 132 131 128 126
338 341 209 208 203 209 203 181 190 174 153 164 164 162 155 153 140 149 155 163 161 165 163 167 157 152 154 161 154 146 162 155 148 158 157 149 152 146 143 138 137 141 136
338 327 262 202 208 199 197 194 190 186 146 168 161 157 154 157 148 157 158 159 170 174 173 164 168 169 162 162 152 163 165 170 160 161 162 160 157 159 150 151 154 155 151
338 330 322 196 195 204 204 197 199 189 173 166 156 157 156 151 149 156 162 163 170 171 177 173 177 171 170 167 173 178 172 171 174 177 168 172 166 165 166 167 168 169 166
340 336 341 317 202 210 198 197 195 191 165 163 158 152 156 156 157 160 173 171 176 176 177 179 176 174 177 169 180 192 186 181 180 185 182 187 184 185 183 186 186 185 183
347 345 353 342 255 219 199 180 202 169 147 148 147 154 156 158 160 172 179 177 180 181 179 174 176 185 185 176 191 192 197 189 191 190 192 195 195 193 201 201 201 200 200
353 349 355 353 350 296 196 182 160 173 154 137 127 113 111 148 164 180 175 185 184 183 184 182 179 185 191 186 199 204 207 199 203 203 199 200 206 203 209 211 214 213 211
352 353 357 353 345 326 209 171 157 158 162 156 159 144 149 145 192 192 185 191 188 180 190 194 189 191 193 188 204 212 218 212 206 206 204 209 213 215 214 218 222 224 222
354 357 357 354 345 345 331 178 175 175 170 185 181 153 150 173 157 186 202 200 195 192 194 198 203 197 198 201 204 212 215 221 219 210 210 211 209 214 219 220 224 229 229
354 357 358 355 346 339 344 350 186 172 164 172 162 192 189 130 160 155 190 208 201 203 202 201 207 207 202 205 208 208 212 220 224 218 213 211 216 220 225 225 225 228 235
359 356 353 352 343 342 348 341 347 182 184 177 185 170 155 127 106 138 173 202 210 211 209 205 204 209 209 205 211 212 213 217 224 225 224 217 223 219 225 228 231 230 234
353 355 350 352 338 339 342 340 328 299 189 182 179 182 178 174 186 166 164 185 211 214 209 207 206 209 211 210 210 213 216 217 221 224 226 232 224 220 225 231 234 234 236
350 349 343 345 336 331 334 331 329 326 223 183 189 196 192 191 154 190 183 173 189 196 198 215 215 210 212 212 215 212 218 220 221 223 224 224 225 226 230 230 231 236 237
339 340 337 334 329 336 338 342 327 336 342 198 191 187 197 200 194 180 202 197 226 215 209 209 207 212 212 211 215 213 218 222 223 223 223 222 222 224 226 223 222 223 238
339 334 335 336 339 8 357 346 349 342 341 322 208 205 217 211 203 201 204 207 204 203 221 231 222 208 213 213 216 208 213 221 223 224 223 222 222 222 223 224 222 221 223
339 341 346 354 0 9 356 360 349 346 347 333 250 203 208 209 203 200 205 206 208 222 236 208 217 207 201 216 216 210 215 217 221 222 223 223 221 221 222 224 223 225 225
341 343 343 17 11 6 359 356 354 355 347 332 340 241 215 211 203 203 199 208 216 217 236 252 229 218 221 222 220 211 216 215 223 224 223 223 222 221 221 223 223 226 227
341 343 24 19 17 8 0 358 348 345 338 334 335 335 334 215 214 203 206 213 217 215 228 247 240 228 221 221 225 206 209 212 217 220 222 223 224 224 222 222 224 225 226
344 9 30 22 16 9 6 353 342 337 331 329 331 330 325 336 225 209 212 217 220 219 221 235 252 234 221 212 219 223 205 209 209 218 220 224 226 226 226 224 224 224 226
0 64 43 28 15 12 7 354 345 341 340 344 326 332 339 11 351 271 217 213 216 219 229 231 254 255 219 208 212 223 206 205 217 209 216 217 222 225 228 227 229 228 228
24 61 36 27 20 20 4 357 351 353 354 358 20 21 38 24 12 5 344 249 217 221 231 224 227 242 254 233 225 228 226 216 221 199 212 223 221 223 230 232 230 231 227
39 49 31 19 16 18 4 3 5 5 27 34 25 13 15 17 1 352 351 342 324 230 214 209 223 228 232 237 236 214 226 218 237 207 213 233 191 227 228 222 227 229 225
49 53 31 21 11 13 8 9 9 25 36 38 30 17 19 15 8 350 332 348 339 320 275 238 228 227 237 226 226 239 239 233 232 224 206 235 194 235 230 231 226 226 227
44 46 29 17 15 10 10 16 11 34 42 42 40 27 26 21 11 356 348 9 1 355 21 351 270 255 228 235 226 222 230 240 250 242 199 235 201 231 239 235 230 229 230
44 46 33 17 14 9 10 18 17 20 37 39 38 36 26 28 13 12 22 20 14 358 351 349 336 317 265 265 268 286 251 247 254 248 206 226 218 231 230 239 239 237 236
52 43 30 20 16 5 12 21 21 18 34 29 31 33 26 32 24 27 35 26 18 353 6 0 0 0 2 349 338 268 252 258 257 253 214 221 234 218 253 233 235 229 230